This is the latest recevied weather packets stored in our database for station/object N5PRN. If no packets are shown the sender has not sent any weather packets the latest 10 day(s).
| Time | Temp. | Humidity | Pressure | Rain* | Wind** | Luminosity | Snow |
|---|---|---|---|---|---|---|---|
| 1777940421 | 22.78° C | 67% | 1011 hPa | 0 mm | - | 21 W/m² | - |
| 1777940118 | 22.78° C | 66% | 1011.1 hPa | 0 mm | - | 30 W/m² | - |
| 1777939815 | 22.78° C | 66% | 1011.1 hPa | 0 mm | - | 39 W/m² | - |
| 1777939512 | 22.78° C | 65% | 1010.9 hPa | 0 mm | - | 39 W/m² | - |
| 1777939209 | 22.78° C | 65% | 1011.1 hPa | 0 mm | - | 34 W/m² | - |
| 1777938906 | 23.33° C | 65% | 1011.4 hPa | 0 mm | - | 34 W/m² | - |
| 1777938602 | 23.33° C | 64% | 1011.2 hPa | 0 mm | - | 52 W/m² | - |
| 1777938300 | 23.33° C | 63% | 1011.4 hPa | 0 mm | - | 62 W/m² | - |
| 1777937996 | 23.33° C | 62% | 1011.4 hPa | 0 mm | - | 56 W/m² | - |
| 1777937692 | 23.89° C | 63% | 1011.5 hPa | 0 mm | - | 57 W/m² | - |
| 1777937389 | 23.89° C | 61% | 1011.8 hPa | 0 mm | - | 59 W/m² | - |
| 1777937086 | 23.89° C | 60% | 1011.8 hPa | 0 mm | - | 64 W/m² | - |
| 1777936784 | 23.89° C | 61% | 1011.9 hPa | 0 mm | - | 60 W/m² | - |
| 1777936479 | 23.89° C | 60% | 1011.9 hPa | 0 mm | - | 58 W/m² | - |
| 1777936176 | 24.44° C | 59% | 1011.9 hPa | 0 mm | - | 71 W/m² | - |
| 1777935873 | 24.44° C | 59% | 1012 hPa | 0 mm | - | 89 W/m² | - |
| 1777935572 | 24.44° C | 59% | 1012 hPa | 0 mm | - | 77 W/m² | - |
| 1777935268 | 24.44° C | 59% | 1011.9 hPa | 0 mm | - | 129 W/m² | - |
| 1777934965 | 24.44° C | 57% | 1012 hPa | 0 mm | - | 203 W/m² | - |
| 1777934661 | 24.44° C | 58% | 1012.2 hPa | 0 mm | - | 303 W/m² | - |
| 1777934359 | 25° C | 58% | 1012.2 hPa | 0 mm | - | 330 W/m² | - |
| 1777934054 | 25° C | 58% | 1012.1 hPa | 0 mm | - | 357 W/m² | - |
| 1777933750 | 24.44° C | 59% | 1012.2 hPa | 0 mm | - | 323 W/m² | - |
| 1777933448 | 23.89° C | 59% | 1012.2 hPa | 0 mm | - | 386 W/m² | - |
| 1777933146 | 24.44° C | 59% | 1012.3 hPa | 0 mm | - | 104 W/m² | - |
* Rain latest hour (hover to see other rain measurements)
** Current wind speed in m/s (hover to see current wind gust speed)